Location: Biltmore Gardens
(41.6070°N, 83.4666°W)
Time: 13:37:34
(UTC+00:00)

SL-16 R/B - Pass Details

Date: 14 July 2020
Orbit: 985 x 1007 km, 99.5° (Epoch: 13 August)

Event Time Altitude Azimuth Distance (km) Brightness Sun altitude
Exits shadow 08:57:24 13° 250° (WSW) 2,575 4.2 -12.0°
Maximum altitude 08:59:24 15° 271° (W) 2,452 4.2 -11.8°
Drops below altitude 10° 09:02:42 10° 303° (WNW) 2,784 4.7 -11.3°
Sets 09:06:34 0° 327° (NNW) 3,742 5.7 -10.8°
